QFA161 NZWN-NZQN

Flight info

Callsign QFA161
Flight time 1h 2m
Altitude 34000
Route SABDA Y622 MESIX H159 CH Y266 ELRUV
Aircraft A320/M-SDE3FGHIRWY/LB1

Departure

Time 2026-05-06 23:47
Airport Wellington International Airport (NZWN)

Arrival

Time 2026-05-07 00:50
Airport Queenstown Airport (NZQN)
Time Latitude Longitude Altitude Speed Heading
2026-05-06 23:39 -41.33218 174.80782 38 ft 19 kts 184°
2026-05-06 23:40 -41.33356 174.80772 36 ft 21 kts 185°
2026-05-06 23:40 -41.33497 174.80765 34 ft 0 kts 182°
2026-05-06 23:42 -41.33503 174.80765 34 ft 3 kts 182°
2026-05-06 23:42 -41.33540 174.80752 33 ft 8 kts 210°
2026-05-06 23:42 -41.33573 174.80673 33 ft 12 kts 267°
2026-05-06 23:42 -41.33521 174.80634 32 ft 0 kts
2026-05-06 23:46 -41.33499 174.80635 33 ft 14 kts
2026-05-06 23:46 -41.33157 174.80657 35 ft 84 kts
2026-05-06 23:46 -41.32337 174.80708 46 ft 151 kts
2026-05-06 23:47 -41.31201 174.80781 590 ft 167 kts
2026-05-06 23:47 -41.30024 174.80865 1443 ft 171 kts
2026-05-06 23:47 -41.28834 174.80948 2060 ft 175 kts
2026-05-06 23:47 -41.27539 174.81037 2315 ft 197 kts
2026-05-06 23:48 -41.26103 174.80991 2589 ft 215 kts 349°
2026-05-06 23:48 -41.24663 174.80384 3146 ft 220 kts 334°
2026-05-06 23:48 -41.23242 174.79605 3896 ft 222 kts 340°
2026-05-06 23:48 -41.21759 174.78990 4678 ft 224 kts 345°
2026-05-06 23:49 -41.20239 174.78468 5469 ft 227 kts 345°
2026-05-06 23:49 -41.18704 174.77938 6236 ft 229 kts 345°
2026-05-06 23:49 -41.17149 174.77402 6980 ft 232 kts 345°
2026-05-06 23:49 -41.15627 174.76674 7711 ft 235 kts 327°
2026-05-06 23:50 -41.14460 174.75179 8427 ft 236 kts 300°
2026-05-06 23:50 -41.14314 174.70968 9815 ft 241 kts 241°
2026-05-06 23:50 -41.15418 174.69306 10491 ft 244 kts 212°
2026-05-06 23:51 -41.17015 174.68569 11157 ft 248 kts 184°
2026-05-06 23:51 -41.18746 174.68609 11802 ft 254 kts 173°
2026-05-06 23:51 -41.20575 174.68923 12026 ft 277 kts 173°
2026-05-06 23:51 -41.22568 174.69261 12214 ft 300 kts 173°
2026-05-06 23:52 -41.24726 174.69623 12369 ft 324 kts 173°
2026-05-06 23:52 -41.27038 174.70006 12500 ft 346 kts 173°
2026-05-06 23:52 -41.29497 174.70414 12639 ft 365 kts 173°
2026-05-06 23:52 -41.32055 174.70842 13068 ft 374 kts 173°
2026-05-06 23:53 -41.34653 174.71274 13642 ft 379 kts 174°
2026-05-06 23:53 -41.37296 174.71251 14233 ft 381 kts 188°
2026-05-06 23:53 -41.39917 174.70662 14813 ft 384 kts 190°
2026-05-06 23:53 -41.42557 174.70044 15367 ft 387 kts 190°
2026-05-06 23:54 -41.45214 174.69422 15904 ft 390 kts 190°
2026-05-06 23:54 -41.47892 174.68783 16428 ft 393 kts 192°
2026-05-06 23:54 -41.50502 174.67667 16935 ft 395 kts 204°
2026-05-06 23:54 -41.52961 174.66002 17450 ft 398 kts 208°
2026-05-06 23:55 -41.55425 174.64280 17966 ft 401 kts 208°
2026-05-06 23:55 -41.57906 174.62550 18483 ft 404 kts 208°
2026-05-06 23:55 -41.60412 174.60810 18992 ft 407 kts 207°
2026-05-06 23:55 -41.62930 174.59061 19488 ft 410 kts 207°
2026-05-06 23:56 -41.65474 174.57292 19979 ft 413 kts 208°
2026-05-06 23:56 -41.68030 174.55508 20454 ft 416 kts 208°
2026-05-06 23:56 -41.70606 174.53703 20903 ft 419 kts 208°
2026-05-06 23:56 -41.73195 174.51888 21335 ft 422 kts 208°
2026-05-06 23:57 -41.75804 174.50061 21751 ft 424 kts 208°
2026-05-06 23:57 -41.78426 174.48223 22157 ft 427 kts 208°
2026-05-06 23:57 -41.80960 174.46128 22537 ft 429 kts 214°
2026-05-06 23:57 -41.83432 174.43875 22918 ft 432 kts 214°
2026-05-06 23:58 -41.85922 174.41606 23290 ft 434 kts 214°
2026-05-06 23:58 -41.88430 174.39320 23654 ft 436 kts 214°
2026-05-06 23:58 -41.90945 174.37027 24011 ft 439 kts 214°
2026-05-06 23:58 -41.93478 174.34716 24361 ft 441 kts 214°
2026-05-06 23:59 -41.96023 174.32394 24707 ft 443 kts 214°
2026-05-06 23:59 -41.98583 174.30057 25053 ft 446 kts 214°
2026-05-06 23:59 -42.01151 174.27713 25393 ft 448 kts 214°
2026-05-06 23:59 -42.03735 174.25355 25728 ft 450 kts 214°
2026-05-07 00:00 -42.06336 174.22979 26050 ft 453 kts 214°
2026-05-07 00:00 -42.08936 174.20597 26550 ft 450 kts 214°
2026-05-07 00:00 -42.11517 174.18229 27079 ft 448 kts 214°
2026-05-07 00:00 -42.13251 174.16634 27409 ft 447 kts 214°
2026-05-07 00:01 -42.16643 174.13508 28028 ft 445 kts 214°
2026-05-07 00:01 -42.19190 174.11158 28484 ft 444 kts 214°
2026-05-07 00:01 -42.21742 174.08803 28933 ft 443 kts 214°
2026-05-07 00:01 -42.24302 174.06438 28922 ft 449 kts 220°
2026-05-07 00:02 -42.26881 174.04049 29307 ft 449 kts 220°
2026-05-07 00:02 -42.29460 174.01668 29873 ft 448 kts 220°
2026-05-07 00:02 -42.32026 173.99299 30329 ft 446 kts 221°
2026-05-07 00:02 -42.34583 173.96934 30786 ft 444 kts 221°
2026-05-07 00:03 -42.37128 173.94577 31261 ft 442 kts 221°
2026-05-07 00:03 -42.39655 173.92227 31725 ft 440 kts 221°
2026-05-07 00:03 -42.42168 173.89884 32213 ft 438 kts 221°
2026-05-07 00:03 -42.44671 173.87553 32709 ft 435 kts 221°
2026-05-07 00:04 -42.47162 173.85240 33212 ft 433 kts 221°
2026-05-07 00:04 -42.49639 173.82943 33712 ft 430 kts 222°
2026-05-07 00:04 -42.52099 173.80656 34164 ft 428 kts 222°
2026-05-07 00:04 -42.54545 173.78372 34547 ft 426 kts 222°
2026-05-07 00:05 -42.56978 173.76094 34921 ft 424 kts 222°
2026-05-07 00:05 -42.59399 173.73825 35286 ft 422 kts 222°
2026-05-07 00:05 -42.61808 173.71561 35644 ft 420 kts 222°
2026-05-07 00:05 -42.64205 173.69309 35933 ft 418 kts 222°
2026-05-07 00:06 -42.68893 173.64919 35985 ft 402 kts 223°
2026-05-07 00:06 -42.72761 173.61271 35982 ft 405 kts 223°
2026-05-07 00:07 -42.77394 173.56896 35980 ft 405 kts 223°
2026-05-07 00:07 -42.82783 173.51823 35977 ft 405 kts 223°
2026-05-07 00:08 -42.86668 173.48152 35971 ft 405 kts 223°
2026-05-07 00:08 -42.91301 173.43761 35979 ft 406 kts 223°
2026-05-07 00:09 -42.95941 173.39357 35977 ft 406 kts 223°
2026-05-07 00:09 -43.00585 173.34943 35981 ft 407 kts 223°
2026-05-07 00:10 -43.05221 173.30523 35982 ft 407 kts 223°
2026-05-07 00:10 -43.09818 173.26024 35978 ft 402 kts 229°
2026-05-07 00:11 -43.13434 173.20454 35974 ft 387 kts 242°
2026-05-07 00:11 -43.16640 173.14514 35967 ft 388 kts 241°
2026-05-07 00:12 -43.19864 173.08569 35961 ft 389 kts 241°
2026-05-07 00:12 -43.23087 173.02606 35959 ft 389 kts 242°
2026-05-07 00:13 -43.26306 172.96631 35957 ft 390 kts 242°
2026-05-07 00:13 -43.29525 172.90639 35957 ft 390 kts 242°
2026-05-07 00:14 -43.32739 172.84639 35941 ft 390 kts 242°
2026-05-07 00:14 -43.35957 172.78625 35929 ft 391 kts 242°
2026-05-07 00:15 -43.39179 172.72599 35918 ft 391 kts 242°
2026-05-07 00:15 -43.42415 172.66528 35894 ft 400 kts 242°
2026-05-07 00:16 -43.45755 172.60218 35896 ft 415 kts 241°
2026-05-07 00:16 -43.49213 172.53693 35896 ft 428 kts 241°
2026-05-07 00:17 -43.52398 172.46788 35894 ft 428 kts 246°
2026-05-07 00:17 -43.55401 172.39683 35894 ft 429 kts 247°
2026-05-07 00:18 -43.58400 172.32543 35893 ft 431 kts 246°
2026-05-07 00:18 -43.61402 172.25380 35882 ft 432 kts 246°
2026-05-07 00:19 -43.64411 172.18204 35878 ft 433 kts 246°
2026-05-07 00:19 -43.67425 172.10996 35864 ft 433 kts 246°
2026-05-07 00:20 -43.70434 172.03775 35855 ft 434 kts 246°
2026-05-07 00:20 -43.73452 171.96524 35848 ft 435 kts 246°
2026-05-07 00:21 -43.76464 171.89251 35844 ft 436 kts 246°
2026-05-07 00:21 -43.79484 171.81955 35840 ft 437 kts 246°
2026-05-07 00:22 -43.82501 171.74646 35837 ft 438 kts 247°
2026-05-07 00:22 -43.85535 171.67320 35828 ft 439 kts 246°
2026-05-07 00:23 -43.88653 171.60032 35819 ft 440 kts 245°
2026-05-07 00:23 -43.91816 171.52694 35815 ft 441 kts 246°
2026-05-07 00:24 -43.94929 171.45410 35817 ft 441 kts 246°
2026-05-07 00:24 -43.98037 171.38058 35814 ft 442 kts 246°
2026-05-07 00:25 -44.01144 171.30680 35818 ft 443 kts 246°
2026-05-07 00:25 -44.04253 171.23294 35818 ft 443 kts 246°
2026-05-07 00:26 -44.07372 171.15886 35817 ft 444 kts 246°
2026-05-07 00:26 -44.10476 171.08476 35818 ft 444 kts 246°
2026-05-07 00:27 -44.13586 171.01046 35823 ft 444 kts 246°
2026-05-07 00:27 -44.16682 170.93607 35828 ft 444 kts 246°
2026-05-07 00:28 -44.19784 170.86153 35829 ft 444 kts 246°
2026-05-07 00:28 -44.22877 170.78698 35832 ft 444 kts 246°
2026-05-07 00:29 -44.25961 170.71238 35829 ft 444 kts 246°
2026-05-07 00:30 -44.30578 170.60035 35324 ft 444 kts 246°
2026-05-07 00:30 -44.32119 170.56289 35079 ft 445 kts 247°
2026-05-07 00:30 -44.33659 170.52534 34839 ft 446 kts 247°
2026-05-07 00:30 -44.35223 170.48719 34221 ft 449 kts 247°
2026-05-07 00:31 -44.36760 170.44955 33319 ft 455 kts 247°
2026-05-07 00:31 -44.38355 170.41037 32450 ft 459 kts 247°
2026-05-07 00:31 -44.39918 170.37198 31566 ft 463 kts 247°
2026-05-07 00:31 -44.41521 170.33260 30653 ft 468 kts 246°
2026-05-07 00:32 -44.43162 170.29230 29670 ft 473 kts 246°
2026-05-07 00:32 -44.44779 170.25263 28602 ft 477 kts 246°
2026-05-07 00:32 -44.46455 170.21157 27482 ft 481 kts 246°
2026-05-07 00:32 -44.48118 170.17078 26339 ft 484 kts 246°
2026-05-07 00:33 -44.49786 170.12958 25168 ft 487 kts 246°
2026-05-07 00:33 -44.51457 170.08814 24162 ft 488 kts 246°
2026-05-07 00:33 -44.53118 170.04703 23342 ft 483 kts 246°
2026-05-07 00:33 -44.54763 170.00631 22401 ft 477 kts 246°
2026-05-07 00:34 -44.56388 169.96611 21586 ft 469 kts 246°
2026-05-07 00:34 -44.57982 169.92659 20765 ft 462 kts 246°
2026-05-07 00:34 -44.59550 169.88753 19962 ft 457 kts 246°
2026-05-07 00:34 -44.61094 169.84892 19162 ft 452 kts 247°
2026-05-07 00:35 -44.62620 169.81069 18355 ft 448 kts 247°
2026-05-07 00:35 -44.64132 169.77277 17510 ft 442 kts 247°
2026-05-07 00:35 -44.65622 169.73541 16753 ft 434 kts 247°
2026-05-07 00:35 -44.67083 169.69878 16036 ft 426 kts 248°
2026-05-07 00:36 -44.68521 169.66274 15362 ft 420 kts 248°
2026-05-07 00:36 -44.69935 169.62724 14699 ft 413 kts 248°
2026-05-07 00:36 -44.71321 169.59225 14040 ft 406 kts 248°
2026-05-07 00:36 -44.72684 169.55774 13345 ft 402 kts 249°
2026-05-07 00:37 -44.74039 169.52335 12556 ft 400 kts 249°
2026-05-07 00:37 -44.75372 169.48958 12052 ft 390 kts 249°
2026-05-07 00:37 -44.76687 169.45627 11922 ft 390 kts 249°
2026-05-07 00:37 -44.77984 169.42343 11941 ft 373 kts 249°
2026-05-07 00:38 -44.79220 169.39242 11884 ft 352 kts 249°
2026-05-07 00:38 -44.80375 169.36356 11759 ft 325 kts 250°
2026-05-07 00:38 -44.81397 169.33655 11515 ft 300 kts 257°
2026-05-07 00:38 -44.82014 169.30943 11070 ft 284 kts 267°
2026-05-07 00:39 -44.82439 169.28242 10548 ft 281 kts 266°
2026-05-07 00:39 -44.82871 169.25606 10381 ft 276 kts 266°
2026-05-07 00:39 -44.83306 169.22952 10264 ft 280 kts 266°
2026-05-07 00:39 -44.83743 169.20321 10133 ft 268 kts 266°
2026-05-07 00:40 -44.84164 169.17853 10011 ft 251 kts 266°
2026-05-07 00:40 -44.84560 169.15525 9899 ft 237 kts 266°
2026-05-07 00:40 -44.85090 169.13363 9776 ft 231 kts 254°
2026-05-07 00:40 -44.85892 169.11434 9648 ft 224 kts 244°
2026-05-07 00:41 -44.86917 169.09756 9108 ft 231 kts 233°
2026-05-07 00:41 -44.88202 169.08337 8631 ft 236 kts 219°
2026-05-07 00:41 -44.89652 169.07305 8296 ft 231 kts 209°
2026-05-07 00:41 -44.91164 169.06678 8011 ft 220 kts 196°
2026-05-07 00:42 -44.92607 169.06440 7722 ft 201 kts 186°
2026-05-07 00:42 -44.93961 169.06504 7444 ft 189 kts 179°
2026-05-07 00:42 -44.95253 169.06627 7199 ft 184 kts 180°
2026-05-07 00:42 -44.96523 169.06742 6969 ft 183 kts 179°
2026-05-07 00:43 -44.97785 169.06858 6716 ft 180 kts 180°
2026-05-07 00:43 -44.99017 169.06834 6483 ft 175 kts 191°
2026-05-07 00:43 -44.99797 169.06605 6315 ft 172 kts 202°
2026-05-07 00:43 -45.00884 169.05967 6069 ft 168 kts 214°
2026-05-07 00:44 -45.01831 169.05023 5837 ft 164 kts 227°
2026-05-07 00:44 -45.02583 169.03867 5591 ft 158 kts 239°
2026-05-07 00:44 -45.03142 169.02542 5389 ft 155 kts 251°
2026-05-07 00:44 -45.03486 169.01134 5174 ft 149 kts 262°
2026-05-07 00:45 -45.03630 168.99682 4973 ft 149 kts 271°
2026-05-07 00:45 -45.03603 168.98231 4755 ft 148 kts 280°
2026-05-07 00:45 -45.03406 168.96810 4551 ft 147 kts 290°
2026-05-07 00:45 -45.03049 168.95460 4332 ft 146 kts 298°
2026-05-07 00:46 -45.02550 168.94208 4126 ft 147 kts 303°
2026-05-07 00:46 -45.02010 168.92982 3901 ft 147 kts 303°
2026-05-07 00:46 -45.01468 168.91752 3674 ft 148 kts 302°
2026-05-07 00:46 -45.00925 168.90520 3458 ft 148 kts 301°
2026-05-07 00:47 -45.00382 168.89278 3237 ft 148 kts 299°
2026-05-07 00:47 -44.99998 168.87936 3040 ft 147 kts 283°
2026-05-07 00:47 -44.99863 168.86510 2832 ft 146 kts 269°
2026-05-07 00:47 -44.99978 168.85086 2626 ft 146 kts 257°
2026-05-07 00:48 -45.00181 168.83686 2425 ft 146 kts 258°
2026-05-07 00:48 -45.00382 168.82286 2214 ft 145 kts 259°
2026-05-07 00:48 -45.00609 168.80898 1985 ft 144 kts 255°
2026-05-07 00:48 -45.00898 168.79550 1771 ft 143 kts 249°
2026-05-07 00:49 -45.01241 168.78248 1590 ft 140 kts 251°
2026-05-07 00:49 -45.01475 168.76912 1378 ft 139 kts 258°
2026-05-07 00:49 -45.01682 168.75574 1194 ft 137 kts 255°
2026-05-07 00:49 -45.01862 168.74459 1175 ft 81 kts 257°
2026-05-07 00:50 -45.01921 168.74082 1177 ft 13 kts 248°
2026-05-07 00:50 -45.01993 168.74025 1176 ft 12 kts 203°
2026-05-07 00:50 -45.02030 168.74003 1172 ft 0 kts 203°
2026-05-07 00:51 -45.02031 168.74002 1172 ft 2 kts 204°
2026-05-07 00:51 -45.02035 168.74000 1172 ft 1 kts 204°
2026-05-07 00:51 -45.02073 168.74023 1170 ft 11 kts 124°
2026-05-07 00:51 -45.02118 168.74080 1168 ft 4 kts 178°
2026-05-07 00:52 -45.02136 168.74066 1167 ft 3 kts 207°
2026-05-07 00:52 -45.02146 168.74059 1167 ft 0 kts 207°